Connecta T4.1

operational
NORAD ID: 60472 Int'l Des: 2024-149 Owner: PLNSST Country: TR
LEOCIRCULARRETROGRADESSO

Connecta T4.1について

説明を読み込み中...

リアルタイム位置

3D地球を読み込み中...

次回通過

高度履歴

Altitude vs Time

uPlot chart will show altitude changes over time

軌道要素

1 60472U 24149E 26062.19484723 .00005507 00000-0 23836-3 0 9995
2 60472 97.3834 140.3077 0000542 330.3070 29.8136 15.22828824 85660
Epoch: Mar 3, 2026 • Age: 12 hours

現在のステータス

高度 524.5 km
速度 7.60 km/s
衛星直下点 -75.07°S, 51.21°W
打ち上げ日 Aug 16, 2024
運用期間 1.5 years
タイプ other

技術仕様

分類 Payload
質量 10.00 kg
乾燥質量 10.00 kg
総質量 10.00 kg
長さ 0.30 m
直径 0.20 m
スパン 0.30 m
形状 Box
製造者 PLNSST
バスタイプ Cubesat 6U
フェーズステータス In Orbit
所有者/国 PLNSST/TR

大規模コンステレーション

Loading constellations...